Regional Weather Roundup
Issued by NWS

Home | Current Version | Previous Version | Text Only | Print | Product List | Glossary On
Versions: 1 2 3 4 5 6 7 8 9 10 11 12 13 14 15 16 17 18 19 20 21 22 23 24 25 26 27 28 29 30 31 32 33 34 35 36 37 38 39 40 41 42 43 44 45 46 47 48 49 50
000
ASUS43 KDTX 272010
RWRMI
MICHIGAN HOURLY REGIONAL WEATHER ROUNDUP
NATIONAL WEATHER SERVICE DETROIT/PONTIAC MI
400 PM EDT FRI MAR 27 2015

NOTE: "FAIR" INDICATES FEW OR NO CLOUDS BELOW 12,000 FEET WITH NO
SIGNIFICANT WEATHER AND/OR OBSTRUCTION TO VISIBILITY.

MIZ047>049-052>055-059>063-066>070-074>076-081>083-272100-
SOUTHEAST LOWER MICHIGAN

CITY           SKY/WX    TMP DP  RH WIND       PRES   REMARKS
ADRIAN         CLOUDY    26   7  44 NW12      30.04F
ALMA           MOSUNNY   29   1  30 NW14      30.07S
ANN ARBOR      FLURRIES  24  15  68 N14       30.03S
BAD AXE        PTSUNNY   18   7  64 N16       30.08S
DETROIT CITY   FLURRIES  27  13  55 N16G22    30.03S
DETROIT        FLURRIES  27  12  53 NW9       30.03F
FLINT          PTSUNNY   26   7  44 N14       30.05F
GROSSE ILE     CLOUDY    27  16  63 N13       30.02S
HILLSDALE      PTSUNNY   28   4  37 N12       30.00F
HOWELL         CLOUDY    24  10  56 N8        30.03S

CITY           SKY/WX    TMP DP  RH WIND       PRES   REMARKS
JACKSON        PTSUNNY   26   2  35 N12       30.03F
LAMBERTVILLE   CLOUDY    28  12  50 NW10G17   30.04S
LANSING        PTSUNNY   26   1  34 N10G18    30.05F
LAPEER         NOT AVBL
MASON          CLOUDY    25   1  35 N8G18     30.04S
MONROE         LGT SNOW  25  19  80 N10       30.02S
MT. CLEMENS    CLOUDY    26  10  52 N15G22    30.01S
PONTIAC        FLURRIES  24   9  52 N15       30.01S
PORT HOPE        N/A     18   8  65 N13G24    30.08R
PORT HURON     CLOUDY    25  12  58 N16G23    30.04R
TRI CITIES     PTSUNNY   28   2  32 NW8G17    30.06F
YPSILANTI      CLOUDY    29  14  53 NW13      30.03F
$$
MIZ043>046-050>051-056>058-064>065-071>073-077>080-272100-
SOUTHWEST LOWER MICHIGAN

CITY           SKY/WX    TMP DP  RH WIND       PRES   REMARKS
BATTLE CREEK   MOSUNNY   30   2  30 N13G24    30.04F
BENTON HARBOR  CLOUDY    24  12  60 N14G24    30.13S
BIG RAPIDS     SUNNY     25   2  38 N8G25     30.06S
COLDWATER      MOSUNNY   29   0  28 N10G20    30.02F
HOLLAND        MOSUNNY   27  12  53 NW18G28   30.11S
GRAND RAPIDS   MOSUNNY   30   3  31 N14       30.06F
KALAMAZOO      MOSUNNY   31   1  28 N14G23    30.05F
MARSHALL       PTSUNNY   29   1  30 NW9       30.03S
MUSKEGON       MOSUNNY   28   6  39 NW16G22   30.12F
$$
MIZ016>042-272100-
NORTHERN LOWER MICHIGAN

CITY           SKY/WX    TMP DP  RH WIND       PRES   REMARKS
ALPENA         MOSUNNY   19   5  54 N20G25    30.12S
BEAVER ISLAND  SUNNY     20  -1  39 N13       30.17F
BELLAIRE       SUNNY     19   3  49 N9        30.17S
CADILLAC       SUNNY     20   1  44 NW17G23   30.07R
CHARLEVOIX     SUNNY     17   5  60 N12       30.20S
FRANKFORT      CLEAR     23   2  41 N12       30.18F
GAYLORD        SUNNY     18  -2  41 N7G18     30.06F
GRAYLING       SUNNY     21   1  41 NW12G18   30.07S
HARBOR SPRINGS SUNNY     19   0  44 N8        30.14S
HOUGHTON LAKE  MOSUNNY   23   0  36 N13G21    30.05S
MANISTEE       MOSUNNY   21   3  45 N16       30.16F
OSCODA         MOSUNNY   23   4  45 N12G20    30.08F
PELLSTON       SUNNY     19   1  45 N8        30.15S
TRAVERSE CITY  MOSUNNY   19   5  54 N14G21    30.16F
$$
MIZ007>008-015-272100-
EASTERN UPPER MICHIGAN

CITY           SKY/WX    TMP DP  RH WIND       PRES   REMARKS
KINROSS        SUNNY     16   3  57 NW16      30.13F
MACKINAC ISLAN SUNNY     19  -1  42 N9        30.15S
NEWBERRY       SUNNY     12   1  60 N10G21    30.16F WCI  -1
S. S. MARIE    SUNNY     14   2  58 NW17      30.14S WCI  -3
$$
MIZ004>006-011>014-085-272100-
CENTRAL UPPER MICHIGAN

CITY           SKY/WX    TMP DP  RH WIND       PRES   REMARKS
MANISTIQUE     SUNNY     19   2  47 N13G21    30.18F
ESCANABA       SUNNY     25   1  36 N14G20    30.19F
MENOMINEE      SUNNY     27   3  36 N12G17    30.19S
SAWYER-GWINN   SUNNY     16   1  53 N10       30.17F
$$
MIZ001>003-009>011-084-272100-
WESTERN UPPER MICHIGAN

CITY           SKY/WX    TMP DP  RH WIND       PRES   REMARKS
IRON MOUNTAIN  SUNNY     26   0  32 VRB7      30.14F
HOUGHTON       SUNNY     20   7  57 NW9       30.19F
COPPER HARBOR    N/A     17   3  54 N6        30.25F
IRONWOOD       SUNNY     23  10  58 N6        30.16F
$$

ABBREVIATIONS USED IN REMARKS
   TC - TEMPERATURE IN CELSIUS
  WCI - WIND CHILL INDEX
   HX - HEAT INDEX
  VSB - VISIBILITY



USA.gov is the U.S. government's official web portal to all federal, state and local government web resources and services.